Location: Chochol
(49.7771°N, 14.9780°E)
Time: 17:46:07
(UTC+00:00)

USA 234 - Pass Details

Date: 09 April 2020
Orbit: 1102 x 1106 km, 123.0° (Epoch: 14 May)

Event Time Altitude Azimuth Distance (km) Brightness Sun altitude
Rises 19:49:41 0° 57° (ENE) 3,927 6.0 -18.8°
Reaches altitude 10° 19:52:20 10° 64° (ENE) 2,966 5.3 -19.1°
Maximum altitude 19:58:29 42° 134° (SE) 1,535 3.5 -19.9°
Drops below altitude 10° 20:04:36 10° 203° (SSW) 2,955 5.3 -20.6°
Sets 20:07:14 0° 211° (SSW) 3,911 6.0 -20.9°
